Location: Hauteville
(50.8683°N, 1.7413°E)
Time: 02:36:20
(UTC+00:00)

Daily predictions for brighter satellites

Satellite Brightness Start Highest point End
(mag) Time Altitude Azimuth Time Altitude Azimuth Time Altitude Azimuth
Cosmos 2297 Rocket 3.1 00:03:14 10° NNW 00:08:42 46° NE 00:14:06 10° SE
Cosmos 1782 3.0 00:06:40 10° N 00:10:16 54° ENE 00:11:51 29° SE
Cosmos 2112 Rocket 4.4 00:09:05 10° NNW 00:14:19 63° ENE 00:18:22 17° SE
SL-08 ROCKET BODY 4.4 00:11:57 26° S 00:15:34 90° E 00:21:34 10° N
BREEZE-M DEB (TANK) 3.7 00:11:54 10° WSW 00:16:00 78° SSE 00:31:59 10° E
Cosmos 1818 4.3 00:12:03 10° NW 00:17:02 37° WSW 00:19:10 27° SSW
Cosmos 1975 Rocket 4.2 00:14:30 18° SW 00:17:05 34° WNW 00:21:04 10° N
Cosmos 2058 3.0 00:18:00 33° SSE 00:19:35 59° E 00:23:28 10° NNE
Cosmos 44 3.0 00:19:23 31° SSW 00:21:18 69° SE 00:25:43 10° NE
Cosmos 2228 4.2 00:20:35 10° NNW 00:24:14 30° W 00:25:54 22° SW
Cosmos 1680 Rocket 3.5 00:24:30 10° NNW 00:29:48 87° WSW 00:33:13 23° SSE
RESURS DK-1 3.0 00:27:40 10° NNW 00:31:36 52° NE 00:34:58 13° SE
Cosmos 2098 Rocket 4.4 00:33:42 10° WNW 00:35:08 13° W 00:35:31 13° W
Cosmos 1697 Rocket 4.4 00:32:50 13° SE 00:36:08 21° E 00:40:12 10° NE
H-2A R/B 2.6 00:34:14 24° SE 00:36:18 58° ENE 00:40:02 10° N
Cosmos 1656 4.1 00:33:45 25° S 00:36:47 50° ESE 00:42:09 10° NE
Cosmos 923 Rocket 4.1 00:32:05 10° NNW 00:37:11 59° WSW 00:39:56 27° S
SeaSat 1 3.5 00:33:49 10° ESE 00:38:26 44° NE 00:43:06 10° NNW
Cosmos 2227 Rocket 3.5 00:34:47 10° NNW 00:40:08 40° NE 00:45:26 10° ESE
Cosmos 1400 Rocket 3.5 00:38:35 10° NNW 00:42:12 39° W 00:43:29 29° SW
Cosmos 1356 Rocket 4.1 00:40:53 10° N 00:44:43 46° ENE 00:47:29 17° SE
BlueWalker 3 2.4 00:41:33 10° WNW 00:45:10 59° N 00:48:48 10° E
ATLAS 2AS CENTAUR R/B 4.2 00:39:02 10° NW 00:45:22 37° NNE 00:51:34 10° E
Cosmos 1602 3.8 00:46:12 32° SSE 00:47:18 49° E 00:50:27 10° NNE
Cosmos-2242 4.3 00:45:39 10° N 00:49:30 34° ENE 00:53:05 11° SE
Cosmos 1937 Rocket 3.5 00:47:15 24° SSW 00:50:23 75° WNW 00:55:32 10° NNE
ISS -3.7 00:49:49 10° W 00:53:12 79° N 00:56:33 10° E
H-2A R/B 4.4 00:52:34 10° ENE 00:54:50 14° E 00:57:08 10° ESE
Cosmos 2315 Rocket 4.1 00:50:32 10° NNW 00:56:54 73° W 01:01:14 22° S
Cosmos 858 Rocket 4.5 00:54:37 25° SSW 00:57:43 85° WNW 01:02:56 10° NNE
Cosmos 1441 Rocket 4.1 00:58:03 22° SE 00:59:44 35° E 01:02:58 10° NNE
Landsat 4 2.8 01:03:33 39° SSE 01:04:28 90° WNW 01:07:18 10° NNW
Cosmos 1933 3.1 01:01:08 10° NNW 01:05:02 82° W 01:07:01 27° S
DNEPR-1 R/B 4.3 01:07:10 10° WNW 01:10:55 31° WSW 01:12:14 26° SSW
Meteor 2-3 Rocket 4.0 01:10:11 20° S 01:14:14 70° E 01:20:02 10° NNE
CZ-2C R/B 2.9 01:11:02 22° S 01:14:28 56° W 01:19:57 10° NNW
Cosmos 1606 Rocket 4.4 01:17:14 10° NNW 01:21:09 34° W 01:23:12 22° SW
Cosmos 1048 Rocket 4.0 01:16:13 10° NNW 01:21:38 90° E 01:26:52 11° SSE
Cosmos 2058 Rocket 3.0 01:17:58 10° NNW 01:22:24 85° W 01:25:27 20° S
Cosmos 1315 Rocket 2.6 01:18:50 10° NNW 01:22:39 90° E 01:25:07 21° SSE
Cosmos 1655 Rocket 4.2 01:20:19 20° SSW 01:24:50 69° WNW 01:31:15 10° N
IDEFIX/ARIANE 42P 3.0 01:23:11 10° NNE 01:28:20 57° E 01:32:15 17° S
Lacrosse 5 rocket 2.9 01:30:45 10° WNW 01:34:24 35° N 01:38:04 10° ENE
CZ-2C R/B 3.3 01:31:07 10° N 01:35:53 51° WNW 01:39:09 19° SW
Cosmos 2219 4.3 01:33:11 10° NNW 01:38:42 47° NE 01:44:08 10° SE
Meteor 1-26 Rocket 4.1 01:34:12 10° NNW 01:39:39 87° W 01:44:35 12° S
Cosmos 2360 4.2 01:36:32 19° SSW 01:40:44 84° WNW 01:46:29 10° NNE
CZ-4C R/B 3.1 01:37:34 10° WSW 01:42:04 42° NNW 01:47:50 10° NE
ADEOS II 3.9 01:39:58 10° NE 01:44:16 25° E 01:48:33 10° SSE
Cosmos 1862 4.3 01:42:22 18° WSW 01:44:25 30° WNW 01:47:43 10° N
Cosmos 1867 4.0 01:40:43 14° WSW 01:45:27 61° NW 01:50:54 10° NE
Cosmos 2263 Rocket 2.8 01:40:27 10° NNW 01:46:04 59° NE 01:51:37 10° SE
SL-16 R/B 4.4 01:42:21 10° ESE 01:47:43 31° ENE 01:53:07 10° N
Gbstr 26 Del rocket 4.0 01:44:27 10° WNW 01:50:39 74° SSW 01:58:04 10° ESE
Cosmos 2297 Rocket 2.8 01:47:29 10° NW 01:52:39 38° WSW 01:56:44 15° SSW
CZ-2D R/B 3.1 01:50:51 10° NNE 01:55:49 41° E 02:00:43 10° SSE
SL-19 R/B 4.5 01:50:07 10° NNE 01:55:52 78° WNW 02:00:57 16° SSW
MOZ.5/SAFIR/RUBIN 5/SL-8 3.8 01:56:34 12° S 02:00:44 67° WSW 02:05:24 10° NNW
BREEZE-M DEB (TANK) 2.2 01:59:28 10° W 02:01:54 31° SSW 02:03:55 10° SE
Meteor 2-6 Rocket 4.3 02:00:03 10° NNW 02:05:44 84° ENE 02:11:34 10° SSE
RESURS DK-1 3.8 02:05:50 10° WNW 02:08:44 19° WSW 02:10:15 16° SW
Cosmos 1758 Rocket 3.5 02:05:25 15° S 02:09:03 89° E 02:13:29 10° N
Cosmos 1602 Rocket 3.8 02:05:12 12° S 02:09:08 63° E 02:13:25 10° NNE
Resurs 1-4 Rocket 2.6 02:04:56 10° NNE 02:10:10 57° E 02:15:24 10° S
Cosmos 1980 Rocket 2.9 02:05:14 11° S 02:10:16 47° ESE 02:15:37 10° NE
Tiangong 0.2 02:10:34 12° S 02:10:55 12° SSE 02:12:14 10° SE
H-2A R/B 4.2 02:09:35 12° WSW 02:11:01 14° W 02:13:06 10° NW
Nadezhda 1 Rocket 4.0 02:05:54 10° NNW 02:12:12 78° W 02:18:23 10° S
ATLAS 5 CENTAUR R/B 4.4 02:09:20 10° NNW 02:12:28 21° NNE 02:16:05 10° ENE
Cosmos 1626 Rocket 3.7 02:12:06 15° SSW 02:15:35 64° WNW 02:19:57 10° N
SeaSat 1 3.0 02:11:34 11° S 02:15:54 36° WSW 02:20:26 10° NW
Cosmos 1745 Rocket 4.1 02:12:26 10° S 02:18:42 87° E 02:25:07 10° N
H-2A R/B 4.3 02:15:40 10° NE 02:19:03 18° E 02:22:22 10° SE
Cosmos 1697 Rocket 2.8 02:14:32 14° SW 02:19:27 79° WNW 02:25:09 10° NNE
Cosmos 614 Rocket 3.9 02:17:10 10° NNW 02:22:14 75° WSW 02:27:16 10° SSE
FENGYUN 3A 3.7 02:17:21 10° NNE 02:22:46 85° WNW 02:27:59 11° SSW
BlueWalker 3 1.7 02:19:20 10° WNW 02:22:58 70° SSW 02:26:36 10° ESE
Cosmos 2227 Rocket 2.6 02:18:52 10° NW 02:24:16 45° WSW 02:29:37 10° S
MSX 4.1 02:20:27 10° N 02:26:05 60° WNW 02:31:23 12° SW
Cosmos-2242 4.1 02:22:57 10° NNW 02:26:28 26° W 02:29:26 13° SW
ISS -3.5 02:26:36 10° W 02:29:50 45° SSW 02:33:03 10° SE
Okean 1 3.3 02:26:57 10° NNW 02:30:37 55° W 02:34:14 10° S
H-2A R/B 2.0 02:26:35 10° N 02:30:43 72° WNW 02:34:41 11° SSW
Cosmos 1709 Rocket 4.2 02:26:39 10° S 02:33:01 82° E 02:39:24 10° NNE
ATLAS 2AS CENTAUR R/B 2.7 02:30:10 10° NW 02:37:00 88° SW 02:43:43 10° SE
USA 290 2.2 02:34:38 10° NNW 02:37:56 90° E 02:41:13 10° SSE
Okean 1-7 Rocket 3.6 02:35:18 10° SSW 02:39:44 83° W 02:44:15 10° N
SAR-Lupe-3 4.1 02:36:59 10° SSE 02:39:54 80° ENE 02:42:51 10° NNW
NPP 4.2 02:37:14 10° N 02:42:24 47° WNW 02:47:32 10° SW
ALOS 2.5 02:38:58 10° NNE 02:43:34 71° ESE 02:48:07 10° S
Cosmos 1844 Rocket 4.2 02:40:20 10° NNW 02:45:41 41° NE 02:50:59 10° ESE
Cosmos 2221 2.7 02:43:08 10° NNW 02:47:17 52° W 02:51:25 10° S
Cosmos 1743 3.3 02:46:55 10° SSE 02:50:08 45° E 02:53:22 10° NNE
Cosmos 1125 Rocket 3.9 02:46:28 10° SW 02:51:40 56° WNW 02:56:52 10° NNE
Cosmos 192 4.4 02:47:03 10° SSW 02:51:59 89° WNW 02:56:57 10° NNE
Cosmos 2298 Rocket 4.3 02:49:09 10° SSW 02:54:26 72° ESE 02:59:44 10° NNE
Cosmos 2151 3.0 02:52:13 10° SSW 02:56:22 65° WNW 03:00:30 10° N
Cosmos 1953 Rocket 3.9 02:58:46 10° S 03:03:06 68° E 03:07:27 10° NNE
Cosmos 2322 Rocket 4.5 03:00:51 10° SE 03:04:45 19° E 03:08:39 10° NE
Meteor 1-19 Rocket 4.2 03:00:39 10° NNW 03:06:02 66° W 03:11:30 10° S
Cosmos 2369 3.9 03:02:05 10° SSW 03:07:43 78° ESE 03:13:24 10° NNE
